LPE2190 SPJC-SPJJ

Flight info

Callsign LPE2190
Flight time 0h 23m
Altitude FL230
Route EVSUR2 ILPIP UT218 LOKEB
Aircraft A20N/M-VGDW/C

Departure

Time 2026-05-03 20:19
Airport Jorge Chávez International Airport (SPJC)

Arrival

Time 2026-05-03 20:43
Airport Francisco Carle Airport (SPJJ)
Time Latitude Longitude Altitude Speed Heading
2026-05-03 20:15 -12.02030 -77.12235 53 ft 23 kts 243°
2026-05-03 20:15 -12.02103 -77.12386 47 ft 16 kts 245°
2026-05-03 20:15 -12.02113 -77.12408 49 ft 5 kts 244°
2026-05-03 20:15 -12.02131 -77.12458 47 ft 9 kts 270°
2026-05-03 20:16 -12.02075 -77.12506 46 ft 13 kts 332°
2026-05-03 20:16 -12.01978 -77.12559 44 ft 18 kts 332°
2026-05-03 20:16 -12.01855 -77.12614 45 ft 20 kts 335°
2026-05-03 20:16 -12.01723 -77.12680 46 ft 22 kts 334°
2026-05-03 20:17 -12.01569 -77.12756 41 ft 27 kts 334°
2026-05-03 20:17 -12.01405 -77.12835 40 ft 25 kts 334°
2026-05-03 20:17 -12.01266 -77.12903 38 ft 19 kts 334°
2026-05-03 20:17 -12.01171 -77.12949 38 ft 15 kts 316°
2026-05-03 20:18 -12.01174 -77.13021 38 ft 4 kts 243°
2026-05-03 20:18 -12.01194 -77.13060 37 ft 9 kts 242°
2026-05-03 20:18 -12.01250 -77.13088 34 ft 10 kts 165°
2026-05-03 20:18 -12.01328 -77.13052 35 ft 19 kts 154°
2026-05-03 20:19 -12.01666 -77.12886 38 ft 88 kts 155°
2026-05-03 20:19 -12.02385 -77.12530 47 ft 140 kts 155°
2026-05-03 20:19 -12.03313 -77.12098 453 ft 147 kts 157°
2026-05-03 20:19 -12.04253 -77.11661 954 ft 152 kts 148°
2026-05-03 20:20 -12.05041 -77.10900 1490 ft 161 kts 129°
2026-05-03 20:20 -12.05806 -77.10045 2027 ft 167 kts 139°
2026-05-03 20:20 -12.06778 -77.09309 2420 ft 186 kts 147°
2026-05-03 20:20 -12.07980 -77.08613 2850 ft 208 kts 152°
2026-05-03 20:21 -12.09345 -77.07916 3362 ft 230 kts 154°
2026-05-03 20:21 -12.10800 -77.07201 3855 ft 254 kts 154°
2026-05-03 20:21 -12.12464 -77.06383 4414 ft 276 kts 154°
2026-05-03 20:21 -12.14193 -77.05523 5323 ft 281 kts 154°
2026-05-03 20:22 -12.15978 -77.04628 6250 ft 287 kts 154°
2026-05-03 20:22 -12.17631 -77.03490 7116 ft 290 kts 133°
2026-05-03 20:22 -12.18700 -77.01753 7890 ft 296 kts 110°
2026-05-03 20:22 -12.19029 -76.99705 8024 ft 293 kts 84°
2026-05-03 20:23 -12.18474 -76.97739 8153 ft 290 kts 58°
2026-05-03 20:23 -12.17145 -76.96226 8274 ft 288 kts 33°
2026-05-03 20:23 -12.15347 -76.95342 8403 ft 288 kts 19°
2026-05-03 20:23 -12.13452 -76.94704 8522 ft 288 kts 17°
2026-05-03 20:24 -12.11604 -76.93903 8640 ft 291 kts 29°
2026-05-03 20:24 -12.10003 -76.92659 8755 ft 291 kts 44°
2026-05-03 20:24 -12.08691 -76.91083 8866 ft 293 kts 53°
2026-05-03 20:24 -12.07585 -76.89338 8969 ft 294 kts 58°
2026-05-03 20:25 -12.06580 -76.87524 8981 ft 294 kts 60°
2026-05-03 20:25 -12.05705 -76.85648 8998 ft 295 kts 71°
2026-05-03 20:25 -12.05366 -76.83579 9284 ft 299 kts 89°
2026-05-03 20:25 -12.05522 -76.81463 10118 ft 298 kts 95°
2026-05-03 20:26 -12.05699 -76.79313 10684 ft 314 kts 94°
2026-05-03 20:26 -12.05869 -76.77010 10931 ft 338 kts 94°
2026-05-03 20:26 -12.06044 -76.74563 11371 ft 351 kts 94°
2026-05-03 20:26 -12.06225 -76.72072 12138 ft 353 kts 94°
2026-05-03 20:27 -12.06409 -76.69566 12891 ft 357 kts 94°
2026-05-03 20:27 -12.06598 -76.67029 13638 ft 360 kts 94°
2026-05-03 20:27 -12.06789 -76.64476 14335 ft 362 kts 94°
2026-05-03 20:27 -12.06979 -76.61914 15042 ft 364 kts 94°
2026-05-03 20:28 -12.07172 -76.59329 15692 ft 367 kts 93°
2026-05-03 20:28 -12.07364 -76.56724 16344 ft 370 kts 93°
2026-05-03 20:28 -12.07559 -76.54093 17022 ft 374 kts 93°
2026-05-03 20:28 -12.07757 -76.51445 17737 ft 375 kts 93°
2026-05-03 20:29 -12.07957 -76.48786 18382 ft 378 kts 93°
2026-05-03 20:29 -12.08161 -76.46102 18857 ft 382 kts 93°
2026-05-03 20:29 -12.08365 -76.43386 19395 ft 385 kts 93°
2026-05-03 20:29 -12.08565 -76.40640 19878 ft 390 kts 93°
2026-05-03 20:30 -12.08767 -76.37884 20502 ft 392 kts 93°
2026-05-03 20:30 -12.08973 -76.35098 20986 ft 396 kts 93°
2026-05-03 20:30 -12.09179 -76.32291 21569 ft 398 kts 93°
2026-05-03 20:30 -12.09381 -76.29468 22096 ft 401 kts 93°
2026-05-03 20:31 -12.09590 -76.26616 22590 ft 405 kts 93°
2026-05-03 20:31 -12.09803 -76.23749 22837 ft 407 kts 93°
2026-05-03 20:31 -12.10012 -76.20869 22964 ft 407 kts 93°
2026-05-03 20:31 -12.10222 -76.17981 23057 ft 409 kts 93°
2026-05-03 20:32 -12.10429 -76.15099 23099 ft 408 kts 93°
2026-05-03 20:32 -12.10637 -76.12212 23124 ft 408 kts 93°
2026-05-03 20:32 -12.10848 -76.09315 22961 ft 409 kts 93°
2026-05-03 20:32 -12.11057 -76.06431 22708 ft 407 kts 93°
2026-05-03 20:33 -12.11266 -76.03566 22457 ft 404 kts 93°
2026-05-03 20:33 -12.11472 -76.00711 22212 ft 402 kts 93°
2026-05-03 20:33 -12.11650 -75.97873 21977 ft 401 kts 92°
2026-05-03 20:33 -12.11811 -75.95029 21734 ft 401 kts 92°
2026-05-03 20:34 -12.11919 -75.93142 21575 ft 400 kts 92°
2026-05-03 20:34 -12.12143 -75.89383 21242 ft 397 kts 92°
2026-05-03 20:34 -12.12314 -75.86577 20978 ft 396 kts 92°
2026-05-03 20:34 -12.12486 -75.83761 20407 ft 400 kts 92°
2026-05-03 20:35 -12.12657 -75.80924 19806 ft 401 kts 92°
2026-05-03 20:35 -12.12825 -75.78107 19271 ft 397 kts 92°
2026-05-03 20:35 -12.12995 -75.75285 18503 ft 400 kts 92°
2026-05-03 20:35 -12.12826 -75.72485 17959 ft 393 kts 77°
2026-05-03 20:36 -12.11909 -75.69909 17528 ft 383 kts 61°
2026-05-03 20:36 -12.10322 -75.67756 16971 ft 380 kts 44°
2026-05-03 20:36 -12.08201 -75.66167 16174 ft 383 kts 28°
2026-05-03 20:36 -12.05703 -75.65258 15857 ft 375 kts 16°
2026-05-03 20:37 -12.03286 -75.64549 16084 ft 349 kts 17°
2026-05-03 20:37 -12.00938 -75.63883 16393 ft 357 kts 15°
2026-05-03 20:37 -11.98546 -75.63275 16520 ft 351 kts 14°
2026-05-03 20:37 -11.96210 -75.62749 16841 ft 334 kts 13°
2026-05-03 20:38 -11.94006 -75.62260 16963 ft 316 kts 15°
2026-05-03 20:38 -11.92001 -75.61675 16926 ft 303 kts 17°
2026-05-03 20:38 -11.90040 -75.61086 16958 ft 286 kts 17°
2026-05-03 20:38 -11.88201 -75.60534 16994 ft 267 kts 18°
2026-05-03 20:39 -11.86478 -75.60022 16992 ft 250 kts 17°
2026-05-03 20:39 -11.84857 -75.59579 16977 ft 234 kts 16°
2026-05-03 20:39 -11.83308 -75.59187 16801 ft 227 kts 14°
2026-05-03 20:39 -11.81808 -75.58831 16547 ft 218 kts 15°
2026-05-03 20:40 -11.80380 -75.58396 16223 ft 212 kts 20°
2026-05-03 20:40 -11.79025 -75.57867 15939 ft 205 kts 23°
2026-05-03 20:40 -11.77732 -75.57321 15499 ft 201 kts 23°
2026-05-03 20:40 -11.76440 -75.56784 15016 ft 200 kts 21°
2026-05-03 20:41 -11.75174 -75.56281 14777 ft 186 kts 28°
2026-05-03 20:41 -11.74339 -75.55381 14655 ft 176 kts 66°
2026-05-03 20:41 -11.74292 -75.54128 14339 ft 183 kts 91°
2026-05-03 20:41 -11.74489 -75.52762 13118 ft 208 kts 99°
2026-05-03 20:42 -11.75127 -75.51459 12383 ft 205 kts 128°
2026-05-03 20:42 -11.76012 -75.50385 12004 ft 191 kts 126°
2026-05-03 20:42 -11.76806 -75.49329 11424 ft 182 kts 126°
2026-05-03 20:42 -11.77551 -75.48356 11135 ft 164 kts 127°
2026-05-03 20:43 -11.78201 -75.47508 11043 ft 132 kts 126°
2026-05-03 20:43 -11.78581 -75.47017 11038 ft 49 kts 127°
2026-05-03 20:43 -11.78780 -75.46758 11032 ft 29 kts 128°
2026-05-03 20:43 -11.78885 -75.46624 11029 ft 24 kts 128°
2026-05-03 20:44 -11.78988 -75.46500 11031 ft 22 kts 148°
2026-05-03 20:44 -11.79000 -75.46461 11031 ft 5 kts 29°
2026-05-03 20:44 -11.78979 -75.46474 11031 ft 4 kts 304°
2026-05-03 20:44 -11.78957 -75.46507 11031 ft 7 kts 304°
2026-05-03 20:45 -11.78924 -75.46555 11030 ft 10 kts 304°
2026-05-03 20:45 -11.78878 -75.46623 11029 ft 13 kts 304°
2026-05-03 20:45 -11.78824 -75.46704 11030 ft 14 kts 304°
2026-05-03 20:45 -11.78766 -75.46786 11032 ft 14 kts 313°
2026-05-03 20:46 -11.78699 -75.46864 11033 ft 15 kts 308°
2026-05-03 20:46 -11.78632 -75.46953 11035 ft 16 kts 307°
2026-05-03 20:46 -11.78567 -75.47037 11039 ft 14 kts 308°
2026-05-03 20:46 -11.78505 -75.47118 11041 ft 15 kts 308°
2026-05-03 20:47 -11.78439 -75.47205 11041 ft 16 kts 310°
2026-05-03 20:47 -11.78436 -75.47287 11045 ft 12 kts 221°
2026-05-03 20:47 -11.78457 -75.47311 11043 ft 1 kts 235°
2026-05-03 20:47 -11.78461 -75.47323 11043 ft 2 kts 257°
2026-05-03 20:48 -11.78462 -75.47338 11043 ft 0 kts 272°